Current weather by "City, St" or "zip code"  
 
Advertise Here

Current Conditions: Camdenton Memorial Airport, MO

Overcast


54.0 F

Last Updated on Feb 28 2021, 6:55 am CST
Humidity: 100%
Wind Speed: N 0.0 mph
Barometer 29.80 in
Dewpoint: 53.6 F
Visibility: 7.00 mi
Precip: --
Heat Index: NA
Wind Chill: NA
Current conditions at:

Camdenton Memorial Airport, MO (KOZS)

Lat: 37.974 Lon: 92.6912

Local Radar Image active severe weather and emergency alerts image image weather storm and storm spotter reports image weather observation monitoring service image
Local
Radar
Active
Alerts
Storm Reports Obs
Monitoring

Sign-up For Email & Text Message Weather Alert Notification Services


Advertise Here

Observation History for Camdenton Memorial Airport, MO


Time Wind
(mph)
Vis
(mi)
Weather Precip (in) Temperature (F) Relative
Humidity
Wind
Chill
(F)
Heat
Index
(F)
Pressure
Air Dwpt altimeter
(in)
sea level
(mb)
Rmks
6:55 am CST N 0.0 7.00 Overcast -- 54.0 53.6 100% NA NA 29.80 M
5:55 am CST S 5.8 10.00 Overcast -- 54.0 53.6 100% 53 NA 29.80 M
4:55 am CST S 4.6 7.00 Overcast -- 54.0 53.6 100% 53 NA 29.78 M
3:55 am CST W 11.5 G 20.7 10.00 Overcast -- 54.0 53.6 100% 51 NA 29.80 M
2:55 am CST S 8.1 10.00 Partly Cloudy -- 54.0 51.8 94% 52 NA 29.76 M
1:55 am CST SE 10.4 10.00 Mostly Cloudy -- 52.0 51.8 100% 48 NA 29.78 M
12:55 am CST S 10.4 10.00 Overcast -- 52.0 51.8 100% 48 NA 29.80 M
11:55 pm CST SE 10.4 10.00 Overcast -- 50.0 50.0 100% 46 NA 29.80 M
10:55 pm CST S 6.9 10.00 Overcast -- 50.0 48.2 94% 47 NA 29.82 M
9:55 pm CST SE 13.8 7.00 Light Rain -- 48.0 46.4 94% 42 NA 29.84 M
8:55 pm CST SE 11.5 10.00 Overcast -- 46.0 44.6 93% 41 NA 29.86 M
7:55 pm CST SE 5.8 2.50 Thunderstorm Rain in Vicinity -- 46.0 42.8 87% 43 NA 29.89 M
6:55 pm CST SE 9.2 10.00 Rain -- 48.0 42.8 82% 44 NA 29.87 M
5:55 pm CST SE 11.5 10.00 Partly Cloudy -- 52.0 39.2 62% 48 NA 29.87 M
4:55 pm CST SE 12.7 G 18.4 10.00 Fair -- 55.0 37.4 51% 52 NA 29.88 M
3:55 pm CST SE 11.5 10.00 Fair -- 59.0 35.6 42% 57 NA 29.87 M
2:55 pm CST SE 9.2 10.00 Fair -- 59.0 35.6 42% 57 NA 29.91 M
1:55 pm CST SE 13.8 10.00 Fair -- 61.0 33.8 36% 59 NA 29.93 M
12:55 pm CST SE 13.8 10.00 Fair -- 59.0 33.8 39% 56 NA 29.97 M
11:55 am CST SE 8.1 10.00 Fair -- 57.0 35.6 44% 55 NA 30.00 M
10:55 am CST E 6.9 10.00 Fair -- 54.0 35.6 51% 52 NA 30.02 M
9:55 am CST SE 9.2 10.00 Fair -- 48.0 39.2 71% 44 NA 30.03 M
8:55 am CST SE 10.4 10.00 Fair -- 43.0 39.2 87% 37 NA 30.04 M
7:55 am CST SE 5.8 5.00 Fog/Mist -- 39.0 37.4 93% 35 NA 30.02 M

Regional Weather Observation


Camdenton Memorial Airport, MO (KH21)

NULL
19.0 F

Camdenton Memorial Airport, MO (KOZS)

Overcast
54.0 F

Warsaw Municipal Airport, MO (KRAW)

Fog
51.0 F

Sedalia, Sedalia Memorial Airport, MO (KDMO)

Fog/Mist
52.0 F

Jefferson City, Jefferson City Memorial Airport, MO (KJEF)

Light Rain Fog/Mist
50.0 F

Clinton, MO, MO (KGLY)

Fog
50.0 F
Advertise Here

Advertise Here